This demonstration page uses our WeatherBlox Daily Observations layout. Learn more.

Left ArrowRight Arrow

39.08367, -84.50855

Hourly Observations for June 12, 2020

Temp ( °F °C ) Dew Point ( °F °C ) Humidity (%) Winds ( mph kmh ) Pressure ( in mb ) Visibility ( mi km ) Precip ( " mm )
12:53 am 00:53 Clear 59 15 53 11.7 81 81 Calm 30.22 1024 10 16.0934 0 0
1:53 am 01:53 Clear 58 14.4 54 12.2 87 87 Calm 30.22 1024 10 16.0934 0 0
2:53 am 02:53 Mostly Clear 56 13.3 53 11.7 90 90 Calm 30.23 1024 10 16.0934 0 0
3:53 am 03:53 Partly Cloudy 56 13.3 54 12.2 93 93 Calm 30.23 1024 10 16.0934 0 0
4:53 am 04:53 Partly Cloudy 56 13.3 54 12.2 93 93 Calm 30.23 1024 10 16.0934 0 0
5:53 am 05:53 Clear 55 12.8 53 11.7 93 93 Calm 30.24 1024 10 16.0934 0 0
6:53 am 06:53 Sunny 55 12.8 54 12.2 96 96 Calm 30.25 1025 10 16.0934 0 0
7:53 am 07:53 Sunny 60 15.6 57 13.9 90 90 Calm 30.26 1025 10 16.0934 0 0
8:53 am 08:53 Sunny 66 18.9 59 15 78 78 S 3 6 30.25 1024 10 16.0934 0 0
9:53 am 09:53 Sunny 74 23.3 58 14.4 57 57 Calm 30.25 1024 10 16.0934 0 0
10:53 am 10:53 Sunny 79 26.1 55 12.8 44 44 N 10 17 30.25 1024 10 16.0934 0 0
11:53 am 11:53 Sunny 80 26.7 55 12.8 42 42 NNE 14 22 30.25 1024 10 16.0934 0 0
12:53 pm 12:53 Partly Cloudy 82 27.8 55 12.8 40 40 N 8 13 30.25 1024 10 16.0934 0 0
1:53 pm 13:53 Partly Cloudy 83 28.3 50 10 32 32 N 8 13 30.24 1024 10 16.0934 0 0
2:53 pm 14:53 Partly Cloudy 85 29.4 47 8.3 27 27 N 12 19 30.22 1023 10 16.0934 0 0
3:53 pm 15:53 Partly Cloudy 84 28.9 48 8.9 29 29 N 7 11 30.2 1023 10 16.0934 0 0
4:53 pm 16:53 Partly Cloudy 84 28.9 45 7.2 25 25 N 9 15 30.18 1022 10 16.0934 0 0
5:53 pm 17:53 Mostly Sunny 84 28.9 47 8.3 27 27 NNE 8 13 30.17 1022 10 16.0934 0 0
6:53 pm 18:53 Mostly Cloudy 82 27.8 49 9.4 32 32 ENE 8 13 30.16 1022 10 16.0934 0 0
7:53 pm 19:53 Sunny 80 26.7 48 8.9 33 33 ENE 7 11 30.16 1021 10 16.0934 0 0
8:53 pm 20:53 Sunny 73 22.8 56 13.3 55 55 Calm 30.17 1022 10 16.0934 0 0
9:53 pm 21:53 Clear 66 18.9 54 12.2 65 65 Calm 30.17 1022 10 16.0934 0 0
10:53 pm 22:53 Clear 64 17.8 54 12.2 70 70 Calm 30.18 1022 10 16.0934 0 0
11:53 pm 23:53 Clear 61 16.1 53 11.7 75 75 Calm 30.17 1022 10 16.0934 0 0

Powered by AerisWeather